Location: L�Ave Maria
(50.7161°N, 1.5911°E)
Time: 13:19:16
(UTC+00:00)

Cosmos 2344 - Pass Details

Date: 10 July 2020
Orbit: 1249 x 2993 km, 63.3° (Epoch: 06 August)

Event Time Altitude Azimuth Distance (km) Brightness Sun altitude
Rises 21:20:20 0° 189° (S) 4,284 5.9 -9.2°
Reaches altitude 10° 21:23:20 10° 182° (S) 3,248 5.3 -9.5°
Maximum altitude 21:30:06 39° 116° (ESE) 1,817 4.0 -10.1°
Drops below altitude 10° 21:37:16 10° 51° (NE) 3,451 5.9 -10.8°
Sets 21:40:33 0° 44° (NE) 4,582 6.7 -11.0°
